{"data":{"norad_id":60996,"intl_designator":"2024-158G","name":"STARLINK-11281 [DTC]","alt_names":[],"object_type":"PAYLOAD","status":"ACTIVE","operator":null,"country":"US","launch_date":"2024-09-05","launch_site_code":"AFETR","launch_vehicle":null,"mission":null,"orbit_class":"UNKNOWN","rcs_meters":null,"size_class":null,"mass_kg":null,"dimensions":null,"purposes":["comms"],"wikipedia_slug":null,"has_3d_model":false,"image_url":null,"decayed_at":null,"tle_current":{"epoch":"2026-05-25T00:56:08.006784Z","epoch_age_seconds":65667,"freshness":"FRESH","line1":"1 60996U 24158G   26145.03898156  .00000525  00000+0  91888-5 0  9998","line2":"2 60996  53.1612 265.0707 0001226  68.4453 291.6695 15.69713053 99576","mean_motion":15.69713053,"eccentricity":0.0001226,"inclination_deg":53.1612,"raan_deg":265.0707,"arg_perigee_deg":68.4453,"mean_anomaly_deg":291.6695,"bstar":9.1888e-6,"rev_number":9957,"period_min":91.736511794172,"perigee_km":358.89195289186,"apogee_km":360.54407494127,"semimajor_km":6737.8550139166,"source":"CELESTRAK","updated_at":"2026-05-25T13:38:19.323285Z"}}}